Theta_e
298 294 291 294 296 296 295 293 291 295 299 296 294 294 297 298 297 297 297 299 301 302 306 307 308 310 345 343 340 338 339 338 345 346 347 346 345 346 348 347 347 349 346 345
296 292 298 300 300 297 295 292 292 296 299 297 295 294 298 299 297 298 298 298 299 302 303 306 308 308 343 337 337 337 337 337 343 347 347 347 345 349 348 349 349 349 346 342
292 295 300 298 296 294 293 293 292 293 297 298 295 293 295 299 300 301 300 301 302 302 303 305 307 307 342 335 332 332 337 342 346 349 349 348 347 345 346 347 346 346 345 349
294 298 297 296 294 295 290 297 296 295 293 286 296 284 292 295 297 300 300 301 302 302 303 305 306 307 341 342 337 336 334 334 346 349 348 346 343 341 345 345 344 344 346 344
294 295 294 293 295 297 292 297 295 294 291 289 290 287 290 295 294 297 300 301 301 303 303 303 305 309 319 345 345 344 334 333 342 341 347 345 343 343 344 345 340 339 339 340
296 302 300 298 301 300 300 296 294 293 290 283 288 289 287 291 294 297 301 302 304 304 304 304 306 309 321 348 346 346 345 343 346 344 346 343 343 343 343 339 338 337 337 336
295 296 300 302 295 298 296 292 284 282 281 281 290 288 289 295 298 299 300 301 303 304 304 304 304 305 323 344 346 346 346 344 346 345 344 344 345 343 339 337 335 334 333 332
287 285 295 298 294 291 291 290 284 277 279 283 290 284 287 298 301 302 302 304 304 303 304 304 304 304 310 342 344 346 346 345 344 344 343 343 344 340 337 335 333 332 331 332
286 287 296 296 297 294 288 285 294 285 286 281 284 288 293 297 299 301 301 304 303 303 302 304 304 305 308 339 342 344 344 342 341 342 342 342 339 336 336 335 332 332 333 328
291 284 293 295 296 296 292 295 285 287 274 274 281 284 285 292 295 299 300 299 301 303 304 304 305 305 315 338 343 343 342 339 342 341 341 341 336 336 335 332 331 331 328 326
293 286 288 291 289 287 289 286 290 290 288 280 277 280 292 293 297 297 297 301 299 302 305 305 305 306 323 339 341 340 338 335 340 340 340 336 337 332 331 329 329 327 324 322
295 287 283 286 292 295 292 290 291 285 282 285 282 282 295 295 298 297 297 301 300 301 306 301 304 306 330 339 339 337 335 334 340 341 337 336 332 332 330 329 326 324 322 321
291 286 281 282 288 295 292 294 294 292 290 284 281 281 297 297 297 298 297 298 301 302 303 303 305 309 332 338 336 338 338 341 341 337 335 332 331 329 327 324 322 321 319 318
295 287 286 280 283 288 285 289 291 291 285 286 286 287 293 295 296 299 298 299 299 302 312 320 318 318 327 327 326 331 332 339 336 333 332 329 327 326 324 322 320 319 318 316
293 285 287 288 290 290 289 289 291 288 290 286 288 289 293 296 296 299 300 302 303 307 318 314 313 316 323 324 324 321 318 324 332 329 327 326 325 323 321 318 317 316 316 313
293 286 288 285 290 290 290 286 286 286 287 287 287 287 294 296 295 296 300 302 302 306 316 312 312 318 318 318 319 320 318 320 326 325 324 323 321 319 317 316 315 314 312 310
291 288 286 281 289 289 285 283 283 284 286 285 281 287 291 289 290 293 296 301 303 307 315 314 313 317 321 322 317 320 319 325 323 322 321 319 316 315 314 314 313 311 307 305
289 289 288 284 286 278 285 288 287 284 286 288 288 289 288 288 290 291 294 297 302 313 317 318 314 318 321 324 324 324 324 323 321 318 316 315 314 314 314 312 310 308 307 304
296 291 286 283 283 288 284 285 283 281 281 289 285 286 287 290 292 291 296 298 302 316 318 316 319 321 323 322 322 321 320 318 317 315 314 315 314 312 312 310 309 308 305 303
293 293 286 286 280 279 280 286 289 289 279 287 285 285 287 293 292 295 300 303 314 319 319 319 320 321 321 320 320 318 316 315 314 313 313 313 313 311 310 309 307 306 303 300
286 284 282 282 281 284 285 288 290 278 280 285 286 288 289 294 302 311 313 314 317 318 318 319 318 317 317 318 317 314 314 312 313 313 312 311 311 310 309 307 306 304 302 299
285 282 278 282 280 278 288 287 280 283 285 286 287 289 292 301 311 311 312 313 314 315 316 317 316 315 317 316 314 312 311 312 313 313 310 310 310 310 308 306 305 303 301 298
282 287 283 284 283 289 288 285 290 287 285 287 288 293 296 310 311 311 311 312 313 314 314 315 314 313 313 314 313 310 311 312 312 310 308 308 308 308 307 306 305 303 302 300
291 293 286 284 288 287 287 290 290 288 288 291 294 294 306 306 308 312 313 312 313 313 313 313 313 310 310 311 311 311 311 311 308 306 306 304 298 296 295 295 295 299 302 299
290 290 287 285 288 286 290 288 288 287 293 292 293 299 302 303 304 307 309 311 312 312 312 311 310 309 309 309 310 309 309 308 304 299 297 294 292 290 289 289 292 293 291 294
289 285 283 282 286 284 284 287 289 291 291 291 292 297 301 303 303 306 307 309 310 310 310 309 309 309 309 309 308 308 308 304 299 296 295 293 291 290 289 289 288 290 291 291
Wind_Speed
9 8 11 18 17 18 15 17 20 18 15 14 15 14 15 11 6 9 10 12 13 16 15 18 15 10 17 19 20 21 21 18 16 9 10 5 9 8 9 10 9 8 7 7
11 14 18 20 21 23 20 21 23 20 18 18 17 20 13 13 8 12 9 8 11 13 14 15 17 13 20 20 21 20 23 22 22 19 12 5 10 4 6 9 10 8 7 7
14 16 20 21 15 18 18 17 16 20 18 17 14 27 17 12 13 12 10 10 13 19 14 13 21 21 17 22 22 21 24 20 17 17 8 6 4 2 5 9 7 4 8 10
12 11 19 20 21 19 21 14 17 17 10 14 7 21 18 5 12 12 12 14 16 16 15 14 15 21 14 25 23 23 24 23 16 15 11 14 11 8 7 9 6 7 12 13
16 14 16 18 21 20 25 18 17 20 10 14 10 9 21 6 16 16 20 14 13 19 15 15 14 18 16 24 26 25 25 23 23 18 17 15 13 8 8 9 12 12 10 13
16 12 17 16 17 17 17 14 14 12 7 14 8 14 23 14 20 18 17 18 19 22 19 15 14 9 14 21 22 23 29 30 28 28 31 17 16 16 13 12 11 9 8 9
18 11 10 9 9 8 13 4 4 5 8 13 9 13 19 5 13 20 21 19 17 23 21 17 16 11 9 22 21 21 21 21 23 23 17 12 17 17 18 14 11 12 9 8
7 10 9 11 12 12 15 8 4 7 4 3 4 10 7 10 18 16 15 15 19 16 17 17 17 11 9 18 20 22 21 20 18 19 15 12 17 11 11 13 11 9 10 9
7 7 23 26 21 10 2 6 7 5 8 4 7 11 13 22 21 13 10 7 11 12 11 16 17 14 8 18 19 22 21 16 15 15 15 14 13 15 13 14 13 10 12 10
5 16 14 19 13 14 13 5 3 4 4 7 5 7 5 10 11 7 6 6 6 10 13 15 18 18 7 16 17 19 20 20 20 19 16 15 17 15 11 13 16 15 14 14
7 8 10 9 6 7 2 2 3 4 5 4 5 6 7 6 3 10 10 9 9 5 13 18 21 22 10 16 16 16 21 23 18 16 16 20 17 19 16 14 14 14 15 13
2 4 8 14 27 20 18 9 13 5 5 4 6 15 8 9 9 8 11 8 9 6 11 8 17 22 13 16 18 17 20 23 19 18 19 18 19 21 17 14 15 16 14 12
5 5 8 7 4 5 4 2 6 11 9 16 10 9 5 11 6 8 9 11 10 7 9 9 8 14 15 17 17 18 21 22 20 21 21 20 21 22 18 17 16 13 14 13
11 5 8 12 17 15 23 22 20 16 8 6 13 22 15 14 15 9 9 13 11 8 12 5 8 8 12 14 13 12 9 18 23 23 23 22 22 21 19 17 15 14 13 13
2 6 11 17 23 23 26 28 24 18 12 9 8 16 13 11 11 15 11 8 12 8 6 9 11 10 18 19 17 16 15 12 33 25 23 22 21 20 19 17 15 15 14 15
5 6 11 19 20 19 15 13 10 5 6 10 11 14 13 12 15 15 12 10 11 6 5 6 8 16 21 20 16 12 19 15 21 29 23 21 21 20 19 17 18 15 16 15
3 4 7 10 13 22 2 3 16 15 11 8 9 4 6 16 22 17 13 9 14 7 15 11 10 16 21 21 22 23 26 4 16 20 21 19 20 20 17 19 19 16 16 15
4 4 5 10 15 4 2 2 13 14 19 13 9 12 18 24 24 23 17 17 15 7 17 13 7 17 24 24 19 26 20 21 18 19 20 19 20 18 18 21 18 17 15 14
5 4 5 6 8 9 3 10 16 16 20 6 5 23 25 24 21 24 16 19 17 11 16 18 14 18 23 29 20 21 17 20 21 20 19 18 17 18 20 19 18 16 15 13
13 9 2 5 7 5 5 18 23 5 7 8 24 26 25 25 6 5 18 14 10 16 17 21 19 22 22 25 28 23 17 18 19 19 18 17 16 18 18 18 18 15 14 13
8 4 5 7 6 1 13 18 19 5 9 28 24 26 25 12 4 12 22 17 17 17 23 26 22 22 22 24 26 25 18 19 19 18 18 18 16 17 17 17 16 14 14 15
5 6 4 5 5 5 15 7 7 10 17 19 24 24 23 13 18 20 22 21 19 21 24 25 23 22 20 22 24 23 22 20 19 19 19 17 15 13 14 17 14 14 16 14
3 1 4 2 5 5 13 8 13 13 17 15 26 28 24 19 23 24 22 19 18 21 21 22 20 22 17 19 21 23 20 21 20 19 18 17 17 13 11 13 15 12 11 10
2 2 3 7 1 10 14 13 15 16 17 19 18 21 10 18 18 20 18 18 18 21 24 23 22 20 20 20 21 21 21 21 20 20 17 13 15 14 13 10 8 7 8 7
2 4 5 8 4 14 1 14 18 17 16 19 21 15 21 21 20 20 19 22 22 19 21 18 20 21 21 21 20 19 19 20 18 16 15 15 14 14 13 11 8 11 6 9
2 2 2 4 8 4 9 15 15 14 14 17 17 19 21 22 20 21 18 20 20 19 21 19 21 21 19 19 19 18 16 17 18 17 13 12 12 11 11 13 14 20 18 21
Wind_Direction
257 259 227 243 244 254 276 287 282 283 286 296 295 261 257 266 249 265 250 253 265 251 257 259 262 270 135 153 151 163 147 148 138 250 200 186 189 189 165 170 170 170 156 168
269 249 244 254 252 240 242 250 265 272 280 279 285 277 268 260 241 241 224 277 272 272 252 254 257 254 149 159 162 155 162 174 165 197 201 180 188 195 154 162 165 157 142 140
271 281 291 294 299 297 285 266 252 266 272 264 311 285 276 264 259 250 226 224 252 258 262 253 237 248 153 160 162 162 163 178 184 194 185 178 185 118 129 149 145 132 128 107
272 286 290 297 292 292 282 289 301 306 309 271 212 276 259 257 276 265 260 232 239 249 247 254 247 226 174 163 173 171 174 173 189 196 192 189 195 170 148 137 105 94 101 98
276 276 276 282 286 283 281 286 284 287 260 285 255 259 271 221 252 251 254 245 247 253 242 243 257 228 191 170 170 172 181 165 187 186 212 189 187 136 125 111 107 99 93 101
283 296 287 273 300 299 311 328 318 314 272 258 220 228 264 234 245 255 256 240 235 244 248 238 243 241 175 170 170 167 173 181 188 188 201 184 157 144 130 128 119 114 106 104
308 275 272 53 20 333 49 21 282 246 216 256 196 225 241 276 242 245 248 254 244 230 236 234 234 237 185 165 170 175 176 179 179 180 167 158 137 135 132 131 124 123 114 110
340 329 4 343 317 300 283 161 272 294 244 295 274 251 247 230 254 252 270 255 244 250 229 223 230 218 170 175 166 170 179 176 175 171 133 147 126 127 125 125 124 118 113 113
301 256 322 305 294 278 230 194 162 251 233 252 223 273 281 264 254 259 259 346 268 239 246 228 231 222 183 181 181 168 176 170 162 150 143 125 112 116 128 124 112 112 115 115
255 287 276 288 307 279 238 155 271 203 240 243 230 275 261 12 359 322 304 273 316 277 242 259 224 232 179 185 175 162 153 158 151 146 144 122 123 116 118 117 124 125 120 119
281 219 281 303 231 232 289 349 180 241 230 271 300 250 191 128 329 312 276 270 280 305 298 240 218 229 171 185 173 161 151 154 149 148 134 131 129 122 123 118 123 126 114 120
247 289 282 281 273 270 250 228 207 236 234 232 260 256 295 297 213 227 278 279 282 277 298 230 204 223 169 180 174 156 153 156 157 143 138 135 128 117 118 123 126 120 131 126
179 233 296 299 313 30 38 326 252 267 259 239 245 256 352 319 288 275 262 286 278 301 310 305 206 206 173 184 170 169 156 144 142 139 132 130 122 119 127 128 124 129 125 116
162 230 223 260 278 297 289 278 271 263 247 268 237 273 276 278 276 283 305 349 306 322 302 112 78 89 122 110 102 101 77 146 145 142 133 124 120 126 126 125 125 120 113 108
168 252 246 252 260 268 270 272 286 273 288 250 302 279 300 307 307 311 324 321 319 337 42 108 120 126 111 107 110 103 36 358 138 123 121 116 124 125 123 115 118 103 99 94
240 275 296 288 273 266 275 35 351 305 276 277 269 263 255 305 310 306 303 305 304 321 147 123 133 120 113 117 117 139 96 350 103 107 119 124 120 115 114 120 105 102 95 91
231 283 302 277 323 307 146 44 350 290 268 269 269 313 338 300 291 272 283 280 279 258 154 145 138 128 114 116 116 110 113 121 83 110 110 117 115 114 123 112 103 102 99 95
199 290 277 288 305 282 121 182 316 284 286 287 293 296 284 280 273 272 256 269 282 262 154 138 148 136 114 108 109 127 107 126 124 116 118 119 115 123 118 102 107 108 102 101
231 280 287 297 311 271 68 343 322 326 304 250 320 305 293 281 254 253 238 239 257 158 138 135 135 128 117 111 100 100 119 118 118 119 114 119 125 122 109 114 113 107 108 102
344 309 292 294 301 293 348 326 321 309 264 3 319 305 308 311 189 225 188 191 190 122 128 136 120 117 120 110 114 108 110 116 116 114 120 120 119 113 115 111 107 109 103 103
327 358 283 310 277 109 351 337 323 5 313 318 313 309 307 311 181 117 118 132 122 133 119 117 107 107 110 111 113 109 123 116 115 116 117 112 111 114 112 111 108 112 108 94
315 330 335 325 288 325 0 336 10 293 297 303 306 308 307 275 121 111 115 119 127 124 117 116 110 107 111 113 111 120 117 117 118 115 111 114 112 108 110 117 119 107 102 104
337 266 299 261 279 354 343 285 314 320 306 312 316 314 321 106 113 116 120 115 123 115 111 111 104 105 106 108 118 116 118 121 118 119 115 116 113 113 114 113 110 108 108 110
354 106 275 329 109 341 314 333 329 328 314 322 322 311 41 80 82 109 113 112 112 113 108 107 108 104 110 113 111 117 123 121 120 118 113 97 88 82 70 65 68 92 121 110
202 309 298 258 308 318 203 337 328 325 339 340 341 6 49 59 60 81 92 102 99 98 94 106 107 109 112 113 112 117 120 121 107 102 95 90 83 82 76 64 74 87 55 108
143 232 309 289 323 265 292 318 333 346 358 346 355 34 47 54 64 76 84 93 102 108 108 105 108 107 109 109 112 116 117 109 108 104 98 96 96 95 93 92 80 56 86 83